Location: Luna
(33.8188°N, 108.9564°W)
Time: 13:43:27
(UTC+00:00)

NOAA 15 - Visible Passes

Search period start: 01 April 2023 00:00
Search period end: 11 April 2023 00:00
Orbit: 796 x 812 km, 98.6° (Epoch: 01 April)

Date Brightness Start Highest point End Pass type
(mag) Time Alt. Az. Time Alt. Az. Time Alt. Az.
01 Apr 6.8 03:13:34 10° SSW 03:17:51 25° W 03:22:09 10° NW visible
02 Apr 5.8 02:47:17 10° S 02:52:20 44° W 02:57:23 10° NNW visible
03 Apr 4.7 02:21:35 10° S 02:26:53 81° WSW 02:32:12 10° NNW visible
04 Apr 4.7 01:56:21 10° SSE 02:01:31 57° ENE 02:06:42 10° N visible
04 Apr 7.4 03:38:51 10° SW 03:41:34 14° W 03:44:18 10° WNW visible
05 Apr 6.7 03:11:37 10° SSW 03:15:58 26° W 03:20:20 10° NW visible
06 Apr 5.7 02:45:22 10° S 02:50:26 46° W 02:55:31 10° NNW visible
07 Apr 4.7 02:19:42 10° SSE 02:25:00 84° WSW 02:30:19 10° NNW visible
08 Apr 7.4 03:36:46 10° SW 03:39:40 15° W 03:42:34 10° WNW visible
09 Apr 6.6 03:09:38 10° SSW 03:14:03 27° W 03:18:29 10° NW visible
10 Apr 5.6 02:43:26 10° S 02:48:32 48° W 02:53:38 10° NNW visible
